Temp
62 62 62 62 62 62 62 62 62 62 62 62 62 62 62 62 61 73 82 86 87 73 73 92 95 96 98 94 97 98 83 81 85 87 89 98 94 99 101 95 96 97 95 95 98
61 61 61 61 61 62 62 62 62 62 62 62 62 62 62 61 75 84 86 75 75 75 91 89 88 92 90 91 92 88 82 84 94 94 92 95 95 95 92 91 92 93 98 93 97
61 61 61 61 61 61 61 61 61 61 62 62 62 62 61 65 80 91 74 75 74 78 99 96 95 92 87 92 90 89 82 92 93 93 94 93 93 96 91 85 91 90 95 93 94
60 60 60 60 60 60 60 61 61 61 61 61 61 61 62 77 76 93 76 74 74 90 96 96 94 87 86 85 92 83 90 91 93 94 92 90 95 91 92 93 98 98 99 97 92
60 60 60 60 60 60 59 59 59 60 60 60 61 61 71 81 88 89 75 77 90 92 93 92 90 89 85 89 90 87 88 92 93 93 92 94 91 91 92 95 95 96 97 95 95
59 59 59 59 59 59 59 59 58 58 59 60 61 61 77 76 100 95 96 92 96 95 94 96 92 94 89 89 88 91 90 91 92 92 92 89 90 91 92 92 91 93 96 97 95
59 59 58 58 59 59 59 58 58 58 60 61 62 73 78 86 102 102 99 97 99 98 93 96 97 91 91 86 93 90 83 88 89 91 89 91 85 86 90 92 88 90 92 92 93
59 58 58 58 59 59 59 59 59 60 60 61 62 76 81 100 104 100 101 98 100 99 97 98 98 93 90 93 87 84 85 78 90 87 90 87 78 83 89 89 86 87 89 90 88
59 58 58 59 59 59 59 58 58 60 61 62 70 77 84 85 92 100 101 95 97 97 97 96 95 89 90 83 81 83 76 78 81 88 87 84 79 81 87 86 83 85 87 88 85
58 58 58 58 59 59 58 57 61 61 67 78 83 78 89 89 96 98 102 99 93 92 90 89 89 84 86 83 72 77 77 79 78 84 85 83 81 81 84 84 81 81 82 79 76
58 58 57 58 58 58 63 77 76 76 82 85 88 88 92 98 100 96 99 95 94 89 81 87 81 78 81 82 82 80 77 77 80 83 81 80 79 79 81 83 80 80 78 77 75
57 57 57 58 58 58 68 84 89 91 81 92 92 92 94 98 88 93 99 88 86 81 86 82 77 82 83 82 80 79 77 77 80 82 80 79 77 78 80 79 79 78 76 76 76
56 56 56 57 58 62 85 91 100 96 81 87 93 93 92 96 89 89 94 90 85 82 82 78 81 83 80 79 76 78 75 75 76 80 81 79 75 74 78 79 78 78 77 76 74
56 56 56 57 59 94 90 98 100 96 75 79 85 90 93 95 85 95 98 92 85 80 83 80 84 78 78 76 76 70 80 78 75 73 68 81 65 70 75 74 76 76 77 77 76
56 56 56 54 77 89 94 100 100 91 52 84 86 98 94 89 89 88 98 92 82 81 80 77 78 76 74 76 78 73 79 76 75 72 72 74 69 72 76 71 73 75 76 77 76
56 56 56 68 78 93 100 98 91 71 51 77 86 84 84 86 86 89 89 93 91 82 82 80 84 80 78 79 78 79 76 77 76 74 63 71 71 73 72 74 73 76 77 77 79
56 55 58 81 92 100 99 90 71 63 80 75 78 82 82 79 80 83 81 79 76 69 70 76 76 80 78 75 80 76 72 63 61 63 62 74 70 70 73 75 76 74 76 78 79
54 54 62 84 99 95 91 78 61 73 75 83 79 79 75 79 79 78 78 75 80 78 73 69 65 74 78 74 72 72 70 63 52 58 64 71 63 70 75 76 76 76 76 77 76
52 77 87 93 93 91 82 68 69 76 81 76 78 72 74 76 76 76 76 76 79 78 68 68 69 76 76 76 75 71 66 74 64 68 63 69 68 72 73 73 74 74 75 74 73
76 90 91 94 92 87 76 65 77 81 80 79 70 75 70 74 72 74 74 79 75 77 79 73 63 73 75 75 76 72 76 63 66 52 52 64 66 64 66 69 72 72 73 72 74
76 85 88 96 90 82 71 75 81 85 82 76 74 72 73 72 73 73 73 77 78 76 78 75 68 67 71 68 70 69 67 67 67 64 55 54 63 73 71 73 71 72 73 73 73
83 78 91 92 76 80 75 80 68 80 83 79 78 76 74 74 71 71 71 74 80 78 70 74 67 63 67 75 75 73 69 69 60 58 63 61 61 75 74 74 73 73 73 74 74
79 85 92 89 70 74 80 80 80 78 78 77 74 77 78 72 66 71 72 79 79 76 71 72 64 58 62 69 70 65 69 68 67 63 56 55 60 72 71 71 72 71 73 73 72
81 75 84 85 83 72 72 71 74 82 78 80 77 78 73 71 74 68 70 75 77 76 65 67 65 60 57 63 68 62 65 68 64 56 59 61 64 66 70 70 72 73 74 74 73
82 73 73 70 76 71 72 72 71 72 78 79 74 74 72 66 68 67 72 74 74 65 72 68 58 64 66 68 68 66 65 67 63 63 56 61 63 69 72 72 74 76 75 73 72
71 69 75 74 73 71 65 69 69 72 72 71 69 74 74 68 70 67 72 71 69 74 69 70 58 62 60 66 66 63 66 66 66 66 65 65 63 74 76 78 74 74 73 72 71
75 77 72 66 72 70 71 69 69 72 74 77 75 74 72 75 80 80 80 77 75 70 68 65 62 58 54 64 64 57 64 66 67 69 67 60 68 75 72 72 72 73 73 71 71
MSLP
1016.64 1016.35 1016.14 1015.89 1015.57 1015.42 1015.24 1015.10 1014.92 1014.71 1014.67 1014.25 1014.07 1014.03 1013.77 1013.44 1013.10 1012.42 1009.59 1007.93 1007.83 1008.36 1008.70 1008.02 1007.25 1006.70 1006.13 1005.43 1005.02 1004.42 1002.99 1000.94 999.96 999.06 998.92 999.09 999.54 1000.43 1001.21 1001.70 1002.31 1003.13 1003.64 1004.86 1005.74
1016.41 1016.10 1015.82 1015.65 1015.34 1015.14 1015.04 1014.82 1014.71 1014.56 1014.39 1014.02 1014.03 1013.73 1013.55 1013.25 1011.78 1009.02 1007.03 1007.71 1008.16 1008.33 1007.62 1007.02 1006.48 1006.20 1005.37 1004.85 1004.59 1003.99 1002.59 1000.75 999.72 999.47 999.43 999.79 999.79 1000.47 1001.18 1002.12 1002.27 1002.97 1003.52 1005.42 1005.75
1016.20 1015.84 1015.56 1015.43 1015.19 1015.00 1014.81 1014.62 1014.41 1014.20 1013.99 1013.83 1013.75 1013.57 1013.32 1012.94 1009.84 1005.87 1007.20 1007.52 1008.03 1007.95 1006.15 1006.21 1005.85 1005.60 1004.74 1004.06 1003.83 1003.35 1002.20 1000.53 1000.23 1000.92 1000.99 1000.74 1000.58 1000.85 1001.35 1002.23 1002.54 1002.89 1003.10 1004.32 1005.33
1016.03 1015.65 1015.39 1015.15 1014.99 1014.80 1014.59 1014.32 1014.10 1013.95 1013.85 1013.63 1013.50 1013.38 1013.02 1011.84 1007.11 1006.05 1007.11 1007.56 1007.80 1007.49 1006.07 1005.07 1004.88 1004.75 1003.90 1003.18 1002.96 1002.82 1002.13 1001.71 1001.16 1001.25 1001.41 1001.32 1001.28 1001.27 1001.71 1001.96 1002.46 1002.70 1002.97 1003.77 1005.07
1015.79 1015.45 1015.20 1014.96 1014.70 1014.46 1014.29 1014.10 1013.92 1013.78 1013.67 1013.50 1013.40 1013.19 1012.38 1009.20 1005.81 1006.47 1007.24 1007.57 1007.43 1007.17 1005.60 1004.74 1004.25 1003.84 1003.02 1002.40 1002.41 1002.14 1002.13 1001.51 1001.58 1001.48 1001.45 1001.40 1001.27 1001.32 1001.46 1002.28 1003.12 1003.44 1003.50 1003.81 1004.39
1015.51 1015.17 1014.90 1014.64 1014.39 1014.14 1013.92 1013.68 1013.63 1013.61 1013.57 1013.34 1013.22 1013.13 1011.15 1007.25 1005.02 1006.12 1006.22 1006.81 1006.04 1005.82 1005.11 1004.47 1003.82 1003.58 1002.84 1002.18 1001.94 1001.68 1001.85 1001.24 1001.24 1001.17 1001.31 1001.53 1001.32 1001.52 1002.09 1003.22 1003.39 1003.41 1002.95 1003.36 1004.28
1015.21 1014.89 1014.71 1014.47 1014.14 1013.87 1013.61 1013.44 1013.33 1013.47 1013.37 1013.17 1013.02 1012.31 1009.45 1005.68 1004.71 1005.19 1005.79 1005.40 1005.19 1004.67 1004.37 1004.34 1003.86 1003.64 1002.91 1002.24 1002.13 1002.02 1001.91 1001.33 1001.15 1001.08 1001.11 1001.62 1001.50 1001.52 1002.83 1003.00 1003.78 1003.61 1003.65 1004.42 1004.68
1015.01 1014.67 1014.39 1014.14 1013.80 1013.56 1013.33 1013.06 1012.88 1012.94 1012.84 1012.84 1012.77 1011.36 1006.74 1004.83 1004.58 1004.91 1005.03 1004.86 1004.94 1004.81 1004.43 1004.28 1004.35 1003.62 1002.93 1002.17 1002.34 1001.82 1001.38 1000.34 999.71 1001.05 1001.20 1001.95 1000.99 1002.77 1003.40 1003.52 1004.17 1004.56 1004.62 1005.01 1006.29
1014.83 1014.43 1014.05 1013.72 1013.37 1013.14 1012.87 1012.67 1012.46 1012.31 1012.39 1012.50 1011.95 1009.88 1005.04 1005.72 1004.90 1004.42 1004.56 1004.12 1004.51 1004.64 1004.62 1004.80 1004.26 1003.38 1002.61 1002.19 1001.20 1000.75 999.75 999.66 1000.03 1000.94 1000.92 1001.92 1001.61 1003.68 1003.99 1004.35 1004.92 1005.31 1005.66 1005.88 1007.33
1014.61 1014.18 1013.78 1013.43 1013.10 1012.89 1012.62 1012.51 1012.23 1012.07 1011.89 1011.08 1009.61 1008.05 1004.93 1003.45 1003.60 1003.94 1004.20 1003.86 1003.94 1004.05 1004.29 1004.25 1003.38 1002.22 1001.66 1000.73 999.67 999.01 999.31 999.69 999.84 1000.65 1001.28 1001.23 1001.87 1003.93 1004.46 1004.94 1005.80 1006.51 1007.06 1008.16 1009.39
1014.35 1013.94 1013.56 1013.19 1012.85 1012.71 1012.36 1011.37 1011.05 1009.87 1008.54 1005.88 1004.59 1003.78 1002.76 1002.90 1003.45 1003.45 1003.81 1003.80 1003.39 1003.48 1002.67 1002.89 1001.74 1000.64 1000.55 1001.18 1000.93 1000.58 1000.48 999.94 1000.29 1001.38 1001.51 1001.10 1001.97 1003.96 1004.97 1005.41 1006.39 1007.30 1008.26 1009.24 1010.09
1014.28 1013.80 1013.31 1012.95 1012.70 1012.52 1011.98 1008.55 1006.30 1006.02 1004.90 1004.04 1003.45 1002.94 1002.77 1002.37 1002.60 1002.87 1003.44 1003.19 1002.93 1001.94 1001.72 1001.89 1000.98 1001.74 1002.44 1002.41 1001.96 1001.40 1000.90 1000.36 1000.54 1001.69 1002.03 1001.64 1002.60 1004.51 1005.27 1006.23 1007.05 1007.90 1008.91 1009.76 1010.33
1014.17 1013.63 1013.13 1012.76 1012.45 1012.01 1009.03 1006.72 1005.79 1005.57 1004.23 1002.93 1002.25 1001.58 1001.96 1002.04 1001.62 1002.15 1002.79 1002.34 1001.77 1001.19 1001.53 1000.81 1001.38 1002.82 1003.01 1002.52 1002.36 1001.74 1001.25 1001.13 1001.00 1001.35 1002.05 1001.81 1002.03 1003.90 1005.47 1006.63 1007.68 1008.54 1009.43 1010.12 1010.75
1013.96 1013.40 1013.03 1012.56 1012.43 1007.82 1006.59 1005.74 1005.64 1005.41 1003.18 1001.89 1001.62 1001.32 1001.50 1001.14 1001.50 1001.93 1002.09 1001.64 1001.50 1001.01 1000.99 1001.26 1002.39 1003.08 1003.10 1002.82 1003.24 1002.63 1002.16 1002.14 1002.16 1002.01 1000.92 1000.42 1000.66 1002.21 1004.50 1006.25 1007.40 1008.32 1009.05 1009.80 1010.61
1013.68 1013.09 1012.73 1012.58 1010.21 1006.85 1005.60 1005.50 1005.37 1005.54 1002.78 1000.69 1000.68 1001.22 1001.11 1000.97 1001.33 1002.06 1002.07 1001.81 1001.17 1001.23 1002.03 1001.46 1002.64 1003.10 1003.15 1003.03 1003.90 1003.47 1003.36 1003.22 1002.74 1002.15 1001.55 1000.75 1001.27 1001.30 1003.44 1005.13 1006.85 1008.14 1008.99 1009.60 1010.60
1013.13 1012.70 1012.46 1011.40 1009.67 1006.53 1005.44 1005.46 1005.42 1004.11 1002.48 1000.59 1000.54 1000.81 1000.84 1000.94 1001.19 1001.67 1001.88 1002.12 1001.57 1001.64 1002.08 1002.28 1003.23 1003.67 1003.65 1004.20 1004.36 1004.29 1003.78 1002.82 1002.40 1001.78 1000.85 1000.45 1000.41 1000.19 1001.96 1003.41 1006.05 1007.78 1008.74 1009.49 1009.96
1012.42 1011.96 1011.92 1008.86 1005.87 1005.50 1005.41 1005.13 1003.78 1001.76 1000.94 1000.17 1000.45 1000.84 1000.62 1000.81 1001.37 1001.52 1001.54 1001.72 1001.80 1001.79 1001.76 1002.41 1003.11 1003.87 1004.83 1004.19 1003.99 1004.29 1003.34 1001.83 1000.84 1000.02 999.15 999.30 1000.10 1001.50 1003.79 1004.99 1006.12 1007.68 1008.54 1009.37 1010.03
1011.52 1011.17 1009.49 1008.05 1005.89 1006.08 1005.63 1004.56 1002.15 1000.48 1000.00 1000.06 1000.98 1001.10 1000.96 1001.09 1001.45 1001.73 1001.62 1001.44 1001.89 1002.21 1001.79 1001.66 1002.01 1003.54 1004.62 1004.51 1003.99 1003.81 1003.79 1002.45 1000.85 999.66 999.41 1000.49 1000.64 1001.50 1004.29 1006.08 1007.28 1008.01 1008.67 1009.46 1010.37
1010.60 1008.90 1007.49 1005.95 1006.51 1006.46 1005.29 1003.03 1001.12 999.92 999.65 1000.46 1001.17 1001.13 1000.94 1001.70 1002.14 1001.79 1001.78 1001.49 1001.49 1002.35 1002.89 1002.43 1002.25 1004.15 1004.84 1005.19 1005.33 1004.05 1004.00 1003.66 1002.89 1001.88 1000.95 1000.30 1001.87 1003.25 1004.69 1006.03 1007.20 1007.94 1008.76 1009.63 1010.61
1009.33 1006.21 1005.05 1005.65 1006.04 1005.84 1004.49 1002.08 1000.37 1000.69 1000.90 1000.92 1000.88 1000.74 1000.76 1000.73 1001.81 1001.67 1001.58 1001.74 1002.38 1003.78 1004.04 1003.46 1003.66 1004.21 1004.72 1005.78 1005.47 1005.25 1004.64 1003.99 1003.47 1002.19 1001.00 1000.34 1000.26 1000.67 1003.82 1005.25 1006.69 1007.81 1008.60 1009.68 1010.47
1008.82 1004.93 1005.38 1005.24 1005.84 1004.71 1002.92 1001.23 1000.51 1000.57 1001.43 1001.60 1001.34 1001.22 1001.29 1001.45 1001.65 1001.62 1001.70 1002.38 1003.38 1004.17 1004.51 1004.26 1004.87 1004.43 1005.18 1005.01 1004.07 1004.80 1004.65 1004.67 1004.19 1003.43 1002.24 1001.60 1001.46 1002.46 1003.43 1004.90 1006.12 1007.66 1008.69 1009.56 1010.28
1007.49 1004.34 1005.11 1005.26 1004.74 1003.32 1002.07 1001.34 1001.24 1001.19 1001.76 1002.06 1002.28 1001.94 1001.68 1001.91 1002.17 1002.23 1002.04 1002.67 1003.79 1004.30 1004.75 1005.07 1005.27 1004.45 1003.99 1004.06 1004.92 1005.03 1004.70 1004.36 1004.09 1003.62 1003.27 1003.32 1002.79 1003.91 1004.69 1005.62 1006.80 1007.46 1008.55 1009.39 1010.20
1007.83 1004.57 1004.62 1004.77 1003.50 1002.38 1001.52 1001.37 1001.44 1001.83 1001.72 1002.01 1002.08 1002.17 1002.27 1002.52 1002.83 1002.84 1002.81 1003.43 1004.47 1004.92 1005.16 1005.79 1005.67 1004.98 1004.06 1004.40 1005.39 1005.36 1005.07 1005.29 1005.29 1005.35 1004.48 1003.90 1003.39 1004.99 1005.78 1006.23 1006.90 1007.49 1008.17 1009.13 1010.10
1007.97 1004.78 1003.85 1003.97 1003.74 1003.78 1002.69 1002.60 1001.47 1001.47 1002.00 1001.97 1002.22 1002.31 1002.85 1002.87 1003.03 1003.20 1003.49 1004.12 1005.06 1005.38 1006.32 1006.87 1006.29 1005.69 1004.49 1003.30 1004.09 1004.67 1005.12 1005.24 1005.40 1005.20 1004.27 1003.57 1003.41 1004.40 1004.91 1005.58 1006.37 1007.13 1007.96 1008.78 1009.42
1008.27 1006.89 1007.07 1004.76 1004.07 1004.86 1004.38 1003.59 1002.58 1001.91 1002.27 1002.44 1002.41 1002.64 1002.71 1002.86 1002.96 1003.23 1003.57 1003.77 1005.24 1006.11 1006.46 1007.02 1006.50 1006.03 1005.28 1004.75 1004.56 1004.52 1004.67 1004.52 1004.61 1004.98 1004.68 1004.15 1003.66 1003.43 1003.72 1004.56 1005.34 1006.31 1007.13 1008.08 1009.07
1010.35 1009.34 1007.92 1006.42 1005.81 1005.34 1004.52 1004.00 1003.35 1002.85 1002.91 1002.69 1002.94 1002.65 1002.61 1002.58 1002.75 1002.67 1002.81 1003.50 1004.09 1005.02 1006.21 1006.58 1006.63 1006.49 1005.66 1005.10 1004.70 1004.31 1004.42 1004.40 1004.20 1004.17 1003.99 1004.08 1003.73 1003.83 1004.19 1004.48 1004.95 1005.82 1006.99 1007.75 1008.79
1012.31 1010.98 1009.89 1007.10 1005.49 1005.24 1004.42 1004.51 1004.35 1004.07 1003.89 1003.36 1002.89 1002.71 1002.60 1002.41 1002.27 1002.72 1002.84 1003.44 1004.09 1004.75 1005.16 1006.05 1006.33 1006.33 1005.31 1004.94 1004.23 1003.51 1003.42 1003.65 1003.53 1003.60 1003.71 1003.39 1003.17 1003.22 1003.40 1004.23 1005.10 1005.73 1006.69 1007.70 1008.44
Wind_Speed
15 15 15 14 12 11 11 11 11 10 12 10 11 12 12 11 14 13 13 1 6 13 7 15 17 13 16 16 18 16 15 15 19 20 9 6 8 9 6 7 7 6 3 9 17
16 15 14 14 13 11 11 11 11 10 11 10 12 11 12 10 17 18 7 12 10 13 15 18 18 16 13 16 13 14 14 19 13 8 7 8 6 7 3 8 8 5 6 8 15
16 15 14 13 12 11 11 11 11 10 11 11 12 12 11 13 16 6 11 12 9 15 14 16 16 17 16 13 17 17 18 15 8 5 9 12 12 4 7 7 10 8 11 18 11
15 14 14 13 12 12 12 11 11 11 11 11 12 12 11 14 4 10 10 10 10 15 18 13 14 16 17 16 13 18 16 14 16 7 11 12 11 11 8 9 9 12 9 5 10
15 14 13 12 12 12 12 11 12 11 12 11 11 11 10 10 9 11 13 11 14 14 11 12 14 16 14 13 12 14 14 12 10 11 9 9 11 8 8 11 10 9 15 6 12
14 14 13 13 12 12 12 11 12 12 12 11 10 10 11 13 13 14 14 14 16 17 16 14 10 14 9 13 13 8 13 13 10 11 9 10 10 5 9 4 5 6 9 5 6
14 13 13 12 12 12 11 11 11 13 11 10 9 9 11 10 7 11 14 12 10 9 8 8 9 8 8 7 10 9 12 12 12 12 9 9 12 9 7 3 5 2 6 2 6
14 14 13 12 12 11 11 10 10 12 10 9 7 10 10 6 7 12 13 8 9 4 7 2 7 11 9 5 7 13 14 14 13 2 8 6 6 8 3 2 9 5 7 12 8
14 14 13 13 12 11 10 10 13 10 8 8 9 9 6 5 10 13 13 13 10 8 6 2 9 14 11 12 14 10 14 12 12 4 6 14 10 5 3 6 7 8 7 11 14
14 14 12 12 10 9 9 7 2 7 8 10 8 8 9 14 12 15 13 7 11 10 10 12 10 13 15 14 10 10 9 6 8 11 10 14 12 8 5 8 9 8 8 15 10
17 14 12 11 9 7 10 6 8 8 12 12 10 12 13 10 12 14 15 12 7 13 14 15 15 6 13 11 12 7 7 8 4 6 12 6 10 7 5 8 10 10 11 10 9
18 16 14 12 9 4 8 9 9 9 9 16 8 7 2 10 14 15 15 13 11 17 8 9 8 10 4 6 9 9 12 13 5 3 8 11 11 8 7 9 9 11 10 10 10
18 16 14 12 8 5 12 13 8 8 9 10 10 12 13 15 16 16 16 16 12 11 10 8 13 5 5 5 8 11 9 14 10 5 9 14 13 15 12 13 11 11 11 11 11
17 16 14 10 4 6 11 4 8 3 8 15 13 6 9 10 6 1 15 12 5 9 10 5 9 4 7 8 3 12 9 9 11 13 14 20 14 22 19 12 11 10 9 11 11
20 15 12 9 12 11 6 6 8 5 6 19 11 7 5 13 13 10 7 10 14 6 3 3 9 9 8 5 9 14 9 11 13 14 16 17 10 12 19 16 12 10 9 10 11
21 16 11 8 8 14 7 6 6 10 5 8 10 11 13 9 8 9 12 10 8 7 7 9 5 4 6 7 7 10 14 14 14 13 14 17 16 12 17 16 15 9 8 7 9
23 16 9 9 5 3 5 8 9 16 3 12 10 11 14 8 8 9 13 14 13 12 15 12 13 6 6 11 11 12 14 12 12 14 15 3 9 11 12 9 12 8 7 8 8
24 7 13 10 5 6 7 10 15 16 17 9 4 6 11 9 11 7 11 14 8 15 14 11 12 12 7 5 10 9 7 11 17 13 2 8 9 9 15 11 9 7 4 7 8
23 7 9 7 11 6 9 13 17 15 5 6 7 10 13 8 8 9 14 15 5 5 12 13 10 9 4 2 6 4 10 7 10 16 14 16 9 10 16 12 8 4 1 7 6
7 7 6 5 6 7 10 16 13 1 4 4 12 7 12 10 11 11 13 5 4 4 5 3 10 9 9 6 10 11 10 8 11 12 17 13 15 4 17 13 10 6 1 5 3
7 6 8 7 6 9 12 16 14 8 4 8 12 14 7 13 6 15 7 10 5 8 6 4 7 7 4 12 13 11 12 9 9 11 12 12 3 12 12 9 8 3 2 2 1
7 6 6 6 9 10 14 18 5 8 8 10 8 15 11 7 9 11 9 5 7 5 10 4 6 11 15 4 4 10 14 13 10 13 8 10 11 6 7 7 7 5 6 2 1
8 5 6 6 11 12 16 17 7 11 9 9 9 11 7 9 7 9 6 3 7 7 3 6 8 10 16 12 8 11 11 11 10 10 15 14 5 9 6 3 5 5 3 5 3
7 5 2 5 5 10 14 9 12 12 10 9 9 6 7 10 7 6 8 7 7 9 8 2 10 12 14 17 7 9 13 13 13 12 14 14 12 13 11 9 9 9 8 7 7
5 5 4 8 5 8 10 13 15 13 10 6 10 11 12 11 11 12 11 9 7 10 7 8 12 15 16 17 16 14 15 16 17 17 18 16 18 13 7 4 7 9 7 8 7
8 7 10 12 7 10 8 12 13 13 3 8 12 14 15 15 13 13 13 11 10 16 12 12 13 15 18 17 18 19 18 20 19 18 17 18 19 16 12 12 6 5 7 8 8
9 9 8 11 7 7 3 5 9 6 10 15 15 10 13 13 10 13 11 6 7 9 12 13 13 13 17 19 19 18 13 19 19 19 16 18 18 14 9 8 9 9 9 9 8
Wind_Direction
310 305 303 304 305 303 303 301 301 306 294 303 302 294 294 295 287 236 251 290 177 157 187 180 207 206 218 210 222 232 252 247 247 252 247 263 203 209 202 296 169 185 302 70 129
311 307 305 304 305 303 298 296 295 295 296 306 294 297 298 300 275 261 197 123 146 178 190 181 191 201 207 217 203 230 231 247 261 333 312 278 260 231 164 247 255 183 150 129 147
314 309 305 301 297 295 293 290 292 297 300 299 299 298 297 290 271 129 145 149 181 204 214 195 195 204 218 216 206 221 253 257 278 281 294 289 285 252 242 218 260 265 282 143 172
315 311 305 301 293 291 294 292 294 293 294 298 298 299 300 264 295 90 145 160 202 220 240 211 196 199 217 212 219 237 254 268 283 254 251 251 264 262 253 258 279 297 304 148 174
318 313 306 299 296 295 292 293 292 292 293 293 295 303 281 229 249 117 142 158 182 213 218 208 199 210 224 226 234 231 255 259 246 251 244 246 246 259 246 38 354 318 273 218 169
321 317 311 304 298 293 291 291 293 291 288 289 292 296 249 252 98 134 153 167 177 203 203 212 214 225 283 257 223 199 235 260 231 226 220 239 241 236 99 13 305 287 243 178 227
324 319 311 302 295 291 285 287 288 281 279 280 281 267 263 272 148 153 163 192 164 213 192 233 253 216 238 230 236 264 253 237 238 227 231 236 247 218 25 11 34 320 80 115 71
326 320 313 303 291 289 288 285 278 275 268 262 261 248 283 128 173 172 189 175 186 196 307 184 217 251 270 331 234 240 234 251 193 160 225 206 177 62 37 59 102 29 119 116 95
327 322 315 305 301 300 298 300 289 268 238 222 217 234 225 131 201 190 194 181 182 206 211 234 236 232 192 236 225 194 243 216 143 225 139 212 140 80 60 75 79 83 74 96 76
329 323 313 308 307 302 294 283 18 166 205 203 266 239 220 207 174 173 189 232 184 190 198 222 219 213 214 217 255 173 220 174 274 145 211 201 129 106 98 107 90 85 88 57 51
330 324 317 312 306 297 287 202 203 191 217 248 173 253 136 120 145 173 181 206 196 202 209 208 232 209 30 2 354 9 305 319 108 90 275 329 76 108 123 117 100 91 77 82 85
328 323 320 312 299 283 269 254 33 343 269 216 245 250 194 180 179 165 187 205 200 226 177 214 222 58 354 306 296 289 278 270 104 209 270 163 154 149 137 96 90 101 91 83 71
327 322 318 310 305 239 239 285 333 326 260 164 187 190 172 203 168 172 195 224 216 229 218 261 75 99 278 247 287 279 289 291 305 174 236 273 182 162 142 125 111 102 104 87 70
326 318 309 312 274 242 245 231 277 332 260 147 183 137 171 216 162 131 201 245 229 251 209 288 108 256 269 277 309 306 323 329 287 274 263 210 258 162 153 139 125 114 93 89 70
326 314 299 270 323 269 25 280 328 230 284 156 132 103 183 220 131 173 197 230 262 205 263 135 180 219 261 342 335 287 345 287 276 266 265 246 237 171 157 159 134 112 98 93 83
326 311 295 216 224 259 299 290 259 232 187 164 149 193 190 204 186 135 187 232 338 293 217 298 76 281 333 311 268 305 272 255 244 245 242 239 250 194 178 163 131 121 96 75 82
324 305 238 310 270 19 286 256 225 243 87 153 184 193 221 172 189 217 190 206 231 213 215 190 215 148 264 259 204 245 260 257 220 214 233 161 181 71 105 96 113 124 100 74 46
324 294 206 260 276 282 257 235 249 237 208 93 163 210 224 191 230 215 244 251 203 273 285 256 193 173 150 275 323 295 310 293 307 298 51 142 230 107 113 118 129 125 91 67 48
316 199 225 201 222 240 246 234 216 258 239 153 179 229 218 204 265 200 240 256 316 151 264 279 246 118 177 225 256 187 247 0 303 276 267 286 94 137 145 151 158 130 107 67 72
295 235 172 123 180 221 239 256 278 8 347 226 232 236 255 199 195 227 252 183 237 258 264 318 267 182 140 243 230 259 346 248 215 262 269 260 258 132 158 169 170 195 118 90 73
255 233 90 166 198 227 240 242 239 140 271 264 260 269 235 277 233 266 237 114 189 174 239 304 244 159 182 217 246 186 223 226 294 299 300 292 319 81 145 163 146 162 122 111 91
289 258 107 191 226 234 240 241 292 284 191 263 263 281 270 254 250 250 255 230 141 189 218 114 285 262 220 140 290 277 282 290 262 261 233 275 288 85 113 143 164 198 166 168 348
297 312 136 221 245 239 238 247 240 254 245 233 242 247 240 261 254 249 244 62 162 220 251 170 230 252 236 198 205 248 233 253 268 278 269 284 299 118 127 144 194 230 223 194 184
290 310 113 234 274 321 311 258 277 209 267 260 254 215 213 237 223 272 234 165 229 220 71 75 271 264 285 311 327 217 225 251 244 257 267 259 252 178 197 203 214 213 203 223 198
325 48 20 302 332 327 294 290 287 278 199 228 237 231 232 246 234 223 254 200 191 148 207 228 252 265 270 274 277 277 269 260 234 247 261 280 291 298 302 232 229 237 226 215 217
340 343 342 284 278 286 262 258 270 284 300 230 234 258 234 242 242 267 232 228 223 187 220 219 260 276 278 276 278 266 259 260 265 264 253 259 262 264 269 268 290 254 245 226 232
358 323 274 293 249 257 337 328 309 331 278 258 283 290 266 296 249 263 257 249 244 255 220 221 247 252 265 269 265 265 258 260 258 249 251 257 263 276 256 229 234 246 216 229 247